DW8991 Weather Reports


time (UTC)temp
C
wind
direction
speed
KPH
gust
KPH
rain 1hr
cm
rain 24hr
cm
rain mn
cm
humidity
%
barometer
mb
20190425161112 8 266 4.8 33.8 0.00 0.03 0.03 3 1009.2
20190425160127 8 288 11.3 22.5 0.00 0.03 0.03 3 1009.2
20190425155113 9 317 17.7 33.8 0.00 0.03 0.03 3 1008.8
20190425154113 10 304 9.7 19.3 0.00 0.03 0.03 3 1008.4
20190425153114 10 262 11.3 29.0 0.00 0.03 0.03 3 1008.3
20190425152114 10 257 11.3 27.4 0.00 0.03 0.03 3 1008.0
20190425151112 10 286 9.7 41.8 0.00 0.03 0.03 3 1007.7
20190425150125 10 279 8.0 29.0 0.00 0.03 0.03 3 1007.7
20190425145112 9 258 16.1 40.2 0.00 0.03 0.03 3 1007.7
20190425143113 8 275 8.0 32.2 0.00 0.03 0.03 3 1007.2
20190425142112 8 279 17.7 32.2 0.00 0.03 0.03 3 1007.1
20190425141112 8 242 8.0 33.8 0.00 0.03 0.03 3 1006.9
20190425140125 8 279 4.8 33.8 0.00 0.03 0.03 3 1006.7
20190425135112 8 282 9.7 32.2 0.00 0.03 0.03 3 1006.5
20190425134112 8 258 4.8 33.8 0.00 0.03 0.03 3 1006.2
20190425133113 8 145 9.7 32.2 0.00 0.03 0.03 3 1006.1
20190425132113 8 285 8.0 32.2 0.00 0.03 0.03 3 1005.8
20190425131112 8 302 9.7 33.8 0.00 0.03 0.03 3 1005.5
20190425130131 8 286 14.5 35.4 0.00 0.03 0.03 3 1005.2
20190425125112 7 214 12.9 29.0 0.00 0.03 0.03 3 1005.2
20190425124113 7 223 9.7 27.4 0.00 0.03 0.03 3 1005.1
20190425123113 7 278 9.7 32.2 0.00 0.03 0.03 3 1005.2
20190425122113 7 230 4.8 25.7 0.00 0.03 0.03 3 1005.4
20190425121112 7 115 4.8 35.4 0.00 0.03 0.03 3 1005.1
20190425120126 8 239 4.8 35.4 0.00 0.03 0.03 3 1005.0
20190425115113 8 237 4.8 20.9 0.00 0.03 0.03 3 1005.0
20190425114112 9 265 9.7 22.5 0.00 0.03 0.03 3 1004.7
20190425113114 10 211 19.3 32.2 0.00 0.03 0.03 3 1004.4
20190425112113 9 251 11.3 32.2 0.00 0.03 0.03 3 1004.3
20190425111113 8 235 8.0 32.2 0.00 0.03 0.03 3 1004.4
20190425110126 8 257 9.7 25.7 0.00 0.03 0.03 3 1004.4
20190425105112 8 277 9.7 25.7 0.00 0.03 0.03 3 1004.4
20190425104113 8 239 9.7 22.5 0.00 0.03 0.03 3 1004.6
20190425103114 8 291 6.4 32.2 0.00 0.03 0.03 3 1004.5
20190425102113 8 215 1.6 8.0 0.00 0.03 0.03 3 1004.5
20190425101113 8 244 3.2 20.9 0.00 0.03 0.03 3 1004.6
20190425100126 8 324 9.7 29.0 0.00 0.03 0.03 3 1004.4
20190425095113 8 255 4.8 29.0 0.00 0.03 0.03 3 1004.0
20190425094113 8 289 11.3 27.4 0.00 0.03 0.03 3 1003.9
20190425093113 8 243 9.7 24.1 0.00 0.03 0.03 3 1004.1
20190425092138 7 235 9.7 20.9 0.00 0.03 0.03 3 1004.0
20190425091113 8 220 8.0 20.9 0.00 0.03 0.03 3 1004.0
20190425090126 8 230 4.8 24.1 0.00 0.03 0.03 3 1003.8
20190425085113 8 207 4.8 22.5 0.00 0.03 0.03 3 1003.8
20190425084112 7 229 9.7 29.0 0.00 0.03 0.03 3 1003.7
20190425083114 7 212 11.3 27.4 0.00 0.03 0.03 3 1003.6
20190425082113 7 230 14.5 25.7 0.03 0.03 0.03 3 1003.5
20190425081112 7 204 0.0 9.7 0.03 0.03 0.03 3 1003.4
20190425080125 7 323 1.6 11.3 0.03 0.03 0.03 3 1003.4
20190425075113 6 172 3.2 19.3 0.03 0.03 0.03 3 1003.3
20190425074112 6 180 4.8 16.1 0.03 0.03 0.03 3 1003.5
20190425073113 6 206 4.8 32.2 0.03 0.03 0.03 3 1003.4
20190425072112 6 240 14.5 29.0 0.00 0.00 0.00 3 1003.4
20190425071112 6 240 4.8 12.9 0.00 0.00 0.00 3 1003.3
20190425070128 6 115 3.2 12.9 0.00 0.00 0.00 3 1002.8
20190425065113 6 194 3.2 12.9 0.00 0.00 0.00 3 1002.7
20190425064113 5 159 3.2 19.3 0.00 0.00 0.00 3 1002.7
20190425063114 5 192 3.2 16.1 0.00 0.00 0.00 3 1002.7
20190425062112 6 173 3.2 14.5 0.00 0.00 0.00 3 1002.5
20190425061112 6 224 3.2 24.1 0.00 0.00 0.00 3 1002.5
20190425060125 6 284 3.2 24.1 0.00 0.00 0.00 3 1002.4
20190425055112 6 166 3.2 12.9 0.00 0.00 0.00 3 1001.9
20190425054113 6 153 4.8 12.9 0.00 0.00 0.00 3 1001.8
20190425053113 6 149 1.6 16.1 0.00 0.00 0.00 3 1001.5
20190425052112 6 130 1.6 14.5 0.00 0.00 0.00 3 1001.5
20190425051112 6 254 0.0 20.9 0.00 0.00 0.00 3 1001.5
20190425050125 6 77 0.0 4.8 0.00 0.00 0.00 3 1001.5
20190425045112 5 134 4.8 19.3 0.00 0.00 0.00 3 1001.3
20190425044113 6 209 4.8 12.9 0.00 0.00 0.00 3 1001.2
20190425043113 6 224 6.4 16.1 0.00 0.00 0.00 3 1001.2
20190425042112 6 260 0.0 19.3 0.00 0.00 0.00 3 1001.1
20190425041113 6 238 11.3 22.5 0.00 0.00 0.00 3 1001.1
20190425040126 6 267 3.2 12.9 0.00 0.00 0.00 3 1001.2
20190425035112 6 222 6.4 19.3 0.00 0.00 0.00 3 1001.2
20190425034112 6 230 3.2 19.3 0.00 0.00 0.00 3 1000.8
20190425033114 6 231 4.8 19.3 0.00 0.00 0.00 3 1000.8
20190425032112 5 240 4.8 12.9 0.00 0.00 0.00 3 1000.7
20190425031112 5 240 3.2 20.9 0.00 0.00 0.00 3 1000.7
20190425030124 5 223 8.0 24.1 0.00 0.00 0.00 3 1000.6
20190425025112 5 115 8.0 20.9 0.00 0.00 0.00 3 1000.6
20190425024113 5 236 4.8 19.3 0.00 0.00 0.00 3 1000.4
20190425023113 5 261 4.8 16.1 0.00 0.00 0.00 3 1000.3
20190425022113 5 184 8.0 16.1 0.00 0.00 0.00 3 1000.5
20190425021112 5 261 11.3 25.7 0.00 0.00 0.00 3 1000.5
20190425020125 5 186 4.8 25.7 0.00 0.00 0.00 3 1000.5
20190425015112 5 189 4.8 12.9 0.00 0.00 0.00 3 1000.2
20190425014112 5 163 4.8 19.3 0.00 0.00 0.00 3 1000.3
20190425013114 5 198 9.7 19.3 0.00 0.00 0.00 3 1000.2
20190425012112 5 178 4.8 16.1 0.00 0.00 0.00 3 1000.3
20190425011112 5 169 6.4 20.9 0.00 0.00 0.00 3 1000.3
20190425010125 5 177 1.6 16.1 0.00 0.00 0.00 3 1000.3
20190425005112 5 128 1.6 12.9 0.00 0.00 0.00 3 1000.3
20190425004112 5 190 3.2 19.3 0.00 0.00 0.00 3 1000.4
20190425003113 5 182 0.0 14.5 0.00 0.00 0.00 3 1000.3
20190425002112 5 237 3.2 16.1 0.00 0.00 0.00 3 1000.4
20190425001110 5 142 4.8 19.3 0.00 0.00 0.00 3 1000.2
20190425000125 5 317 4.8 25.7 0.00 0.00 0.00 3 1000.6
20190424235113 5 288 17.7 33.8 0.00 0.00 0.00 3 1000.4
20190424234112 5 118 3.2 12.9 0.00 0.00 0.00 3 1000.0
20190424232113 5 94 3.2 9.7 0.00 0.00 0.00 3 999.9
20190424231112 5 90 1.6 9.7 0.00 0.00 0.00 3 999.8
20190424230125 5 120 1.6 12.9 0.00 0.00 0.00 3 999.8
20190424224112 5 128 4.8 19.3 0.00 0.00 0.00 3 999.4
20190424223113 5 187 4.8 11.3 0.00 0.00 0.00 3 999.5
20190424222113 5 143 1.6 9.7 0.00 0.00 0.00 3 999.6
20190424221112 5 205 4.8 19.3 0.00 0.00 0.00 3 999.7
20190424220126 5 100 3.2 11.3 0.00 0.00 0.00 3 999.6
20190424215112 5 137 3.2 8.0 0.00 0.00 0.00 3 999.6
20190424214113 5 112 3.2 9.7 0.00 0.00 0.00 3 999.5
20190424213113 5 107 1.6 14.5 0.00 0.00 0.00 3 999.4
20190424212112 6 219 4.8 14.5 0.00 0.00 0.00 3 999.4
20190424211112 6 221 3.2 16.1 0.00 0.00 0.00 3 999.3
20190424210125 6 88 0.0 8.0 0.00 0.00 0.00 3 999.3
20190424205112 6 217 1.6 11.3 0.00 0.00 0.00 3 999.1
20190424204112 6 167 0.0 16.1 0.00 0.00 0.00 3 999.2
20190424203114 6 200 0.0 4.8 0.00 0.00 0.00 3 999.0
20190424202112 6 81 0.0 9.7 0.00 0.00 0.00 3 998.9
20190424201112 6 57 0.0 9.7 0.00 0.00 0.00 3 998.9
20190424200125 7 288 1.6 32.2 0.00 0.00 0.00 3 999.0
20190424195112 7 265 1.6 19.3 0.00 0.00 0.00 3 998.5
20190424194112 7 259 4.8 16.1 0.00 0.00 0.00 3 998.3
20190424193113 7 216 1.6 14.5 0.00 0.00 0.00 3 998.1
20190424192112 7 226 3.2 12.9 0.00 0.00 0.00 3 998.1
20190424191114 7 168 1.6 12.9 0.00 0.00 0.00 3 998.0
20190424190125 7 196 3.2 16.1 0.00 0.00 0.00 3 998.1
20190424185113 7 208 0.0 12.9 0.00 0.00 0.00 3 997.9
20190424184112 7 201 3.2 19.3 0.00 0.00 0.00 3 997.8
20190424183114 7 215 9.7 20.9 0.00 0.00 0.00 3 997.5
20190424182113 7 5 0.0 16.1 0.00 0.00 0.00 3 997.4
20190424181112 7 265 9.7 25.7 0.00 0.00 0.00 3 997.5
20190424180152 8 191 8.0 19.3 0.00 0.00 0.00 3 997.5
20190424175112 8 199 8.0 27.4 0.00 0.00 0.00 3 997.3
20190424174112 8 219 6.4 20.9 0.00 0.00 0.00 3 997.2
20190424173113 8 259 11.3 24.1 0.00 0.00 0.00 3 996.9
20190424172112 8 210 6.4 27.4 0.00 0.00 0.00 3 997.0
20190424171112 8 233 11.3 20.9 0.00 0.00 0.00 3 997.0
20190424170125 8 255 11.3 20.9 0.00 0.00 0.00 3 996.8
20190424165112 8 265 4.8 19.3 0.00 0.00 0.00 3 996.7
20190424164113 7 178 8.0 20.9 0.00 0.00 0.00 3 996.5
20190424163114 7 191 3.2 19.3 0.00 0.00 0.00 3 996.4
20190424162112 6 204 3.2 19.3 0.00 0.00 0.00 3 996.3